Weather in Borgo Maggiore

San Marino     43°56′49″N   12°27′06″E
temp.,
°C
wind,
m/s
gust,
m/s
humid.,
%
clouds,
%
prec.,
mm/h
press.,
hPa
HPBL,
m
8 august, mon
mon823:00+24wnw1164100 0.0 101443
02:00+22w226994 0.0 101572
05:00+21w34740 0.0 1015115
08:00+23wnw23662 0.0 1016290
11:00+28nne44510 0.1 10161168
14:00+29ne534792 0.1 10161289
17:00+28ne2246100 0.0 1014851
20:00+26s3556100 0.0 1016212
9 august, tue
tue923:00+22wsw226737 0.0 101642
02:00+22wnw3467100 0.1 1017107
05:00+21nne1384100 3.5 1016173
08:00+20wsw1187100 8.5 1018107
11:00+26n354963 0.0 1018977
14:00+28ene464178 0.0 10181239
17:00+27e464173 0.0 1017840
20:00+25wsw01489 0.0 101728
10 august, wed
wed1023:00+23w23510 0.0 101847
02:00+22n25640 0.0 1018172
05:00+22ne37650 0.0 1018285
08:00+24n25550 0.0 1018603
11:00+26ne67480 0.0 10191098
14:00+27ne67450 0.0 10191060
17:00+28ne57410 0.0 10181055
20:00+25nne36581 0.0 1017282
11 august, thu
thu1123:00+22wnw12701 0.0 101841
02:00+21wnw13715 0.0 1018110
05:00+20w22679 0.0 1017120
08:00+22wnw235677 0.0 1018256
11:00+27nne343910 0.0 10171147
14:00+28ne56394 0.0 10171194
17:00+28ene44355 0.0 10161030
20:00+23ne1149100 0.0 101543
12 august, fri
fri1223:00+22wnw1258100 0.0 1016121
02:00+21wnw1262100 0.0 1015127
05:00+20wsw226328 0.0 1014125
08:00+23wnw225223 0.0 1014254
11:00+27nne323888 0.0 10141307
14:00+26ne22429 0.0 1014718
17:00+28ene643842 0.0 1013756
20:00+23nne115599 0.3 1014138